Arcata, CA

7:27 PM PST on January 16, 2018 (GMT -0800)
Arcata

Weather History for KACV - January, 2014

Change the Weather History Date:

Saturday, January 11, 2014

  Actual Average Record
Temperature  
Mean Temperature 50 °F -  
Max Temperature 55 °F 54 °F 64 °F (2016)
Min Temperature 43 °F 39 °F 28 °F (2007)
Degree Days  
Heating Degree Days 16    
Moisture  
Dew Point 47 °F    
Average Humidity 88    
Maximum Humidity 94    
Minimum Humidity 77    
Precipitation  
Precipitation 0.83 in - - ()
Sea Level Pressure  
Sea Level Pressure 30.15 in    
Wind  
Wind Speed 8 mph (SSW)    
Max Wind Speed 18 mph    
Max Gust Speed 30 mph    
Visibility 5 miles    
Events Fog , Rain , Thunderstorm    
Averages and records for this station are not official NWS values.
T = Trace of Precipitation, MM = Missing Value Source: NWS Daily Summary

Daily Weather History Graph

Daily Weather History Graph

Search for Another Location

Airport or City:

Trip Planner

Search our weather history database for the weather conditions in past years. The results will help you decide how hot, cold, wet, or windy it might be!

Date:

Astronomy

Jan. 11, 2014 Rise Set
Actual Time 7:40 AM PST 5:08 PM PST
Civil Twilight 7:09 AM PST 5:39 PM PST
Nautical Twilight 6:35 AM PST 6:13 PM PST
Astronomical Twilight 6:02 AM PST 6:46 PM PST
Moon 1:57 PM PST (1/11) 3:50 AM PST (1/11)
Length of Visible Light 10h 29m
Length of Day
9h 28m
Waxing Gibbous, 84% of the Moon is Illuminated
Jan 11
Waxing Gibbous
Jan 15
Full
Jan 23
Last Quarter
Jan 30
New
Feb 6
First Quarter

Hourly Weather History & Observations

Time (PST) Temp. Windchill Dew Point Humidity Pressure Visibility Wind Dir Wind Speed Gust Speed Precip Events Conditions
12:53 AM 46.9 °F - 44.1 °F 90% 30.12 in 10.0 mi ESE 6.9 mph - N/A   Overcast
1:53 AM 48.0 °F - 45.0 °F 89% 30.12 in 10.0 mi Calm Calm - N/A   Overcast
2:53 AM 48.0 °F - 45.0 °F 89% 30.12 in 9.0 mi East 3.5 mph - N/A   Mostly Cloudy
3:46 AM 53.1 °F - 48.9 °F 86% 30.10 in 7.0 mi SSW 12.7 mph 21.9 mph N/A   Overcast
3:53 AM 52.0 °F - 48.9 °F 89% 30.13 in 8.0 mi South 9.2 mph - N/A   Overcast
4:00 AM 52.0 °F - 48.0 °F 86% 30.10 in 8.0 mi South 10.4 mph 17.3 mph N/A   Overcast
4:43 AM 52.0 °F - 46.9 °F 83% 30.04 in 10.0 mi SSE 9.2 mph - N/A   Overcast
4:53 AM 52.0 °F - 46.9 °F 83% 30.05 in 10.0 mi SSW 9.2 mph - N/A   Overcast
5:08 AM 51.1 °F - 46.9 °F 86% 30.05 in 2.5 mi SSW 5.8 mph - 0.05 in Rain Rain
5:19 AM 51.1 °F - 46.9 °F 86% 30.06 in 1.8 mi SW 6.9 mph - 0.11 in Rain Heavy Rain
5:29 AM 52.0 °F - 48.0 °F 86% 30.07 in 2.5 mi SSW 11.5 mph - 0.15 in Rain Rain
5:37 AM 52.0 °F - 48.9 °F 89% 30.08 in 3.0 mi SW 11.5 mph - 0.17 in Rain Rain
5:44 AM 52.0 °F - 48.9 °F 89% 30.08 in 2.0 mi SW 12.7 mph - 0.19 in Rain Rain
5:53 AM 52.0 °F - 48.9 °F 89% 30.09 in 2.5 mi South 11.5 mph - 0.22 in Rain Rain
5:57 AM 52.0 °F - 48.9 °F 89% 30.06 in 3.0 mi South 13.8 mph - 0.01 in Rain Rain
6:09 AM 52.0 °F - 48.9 °F 89% 30.05 in 4.0 mi South 15.0 mph - 0.03 in Rain Light Rain
6:53 AM 53.1 °F - 48.9 °F 86% 30.05 in 10.0 mi SSE 8.1 mph - 0.06 in   Overcast
7:11 AM 52.0 °F - 48.9 °F 89% 30.05 in 5.0 mi West 5.8 mph - 0.01 in Rain Light Rain
7:23 AM 52.0 °F - 50.0 °F 93% 30.05 in 2.0 mi South 6.9 mph - 0.04 in Rain Light Rain
7:41 AM 52.0 °F - 50.0 °F 93% 30.06 in 1.5 mi SSW 8.1 mph - 0.10 in Rain Light Rain
7:51 AM 51.8 °F - 50.0 °F 94% 30.07 in 2.5 mi SSW 9.2 mph - 0.11 in Rain Light Rain
7:53 AM 52.0 °F - 50.0 °F 93% 30.09 in 2.5 mi South 10.4 mph - 0.12 in Rain Light Rain
7:57 AM 52.0 °F - 50.0 °F 93% 30.07 in 3.0 mi SW 10.4 mph - 0.00 in Rain Light Rain
8:11 AM 52.0 °F - 50.0 °F 93% 30.08 in 2.0 mi SSW 11.5 mph 20.7 mph 0.02 in Rain Rain
8:18 AM 52.0 °F - 48.9 °F 89% 30.09 in 1.5 mi SSW 11.5 mph 21.9 mph 0.04 in Rain Rain
8:25 AM 52.0 °F - 48.9 °F 89% 30.10 in 3.0 mi SSW 11.5 mph - 0.04 in Rain Light Rain
8:53 AM 52.0 °F - 48.9 °F 89% 30.14 in 7.0 mi SW 9.2 mph - 0.04 in   Overcast
9:49 AM 51.8 °F - 48.2 °F 88% 30.16 in 6.0 mi SSW 6.9 mph - 0.01 in   Overcast
9:53 AM 52.0 °F - 48.9 °F 89% 30.18 in 7.0 mi SSW 8.1 mph - 0.01 in   Overcast
10:53 AM 54.0 °F - 50.0 °F 86% 30.18 in 6.0 mi South 9.2 mph - N/A   Overcast
11:19 AM 54.0 °F - 51.1 °F 90% 30.16 in 8.0 mi SSW 10.4 mph - N/A   Overcast
11:36 AM 55.0 °F - 51.1 °F 86% 30.14 in 8.0 mi South 12.7 mph - N/A   Overcast
11:53 AM 55.0 °F - 51.1 °F 86% 30.17 in 9.0 mi SSW 10.4 mph - N/A   Overcast
12:53 PM 55.0 °F - 48.0 °F 77% 30.14 in 6.0 mi SSW 12.7 mph - N/A   Haze
1:53 PM 53.1 °F - 48.0 °F 83% 30.13 in 4.0 mi SW 18.4 mph 26.5 mph 0.00 in Rain Light Rain
2:02 PM 53.1 °F - 48.0 °F 83% 30.12 in 2.5 mi SW 18.4 mph 29.9 mph 0.01 in Rain Light Rain
2:14 PM 52.0 °F - 48.0 °F 86% 30.12 in 3.0 mi WSW 15.0 mph - 0.02 in Rain Light Rain
2:16 PM 52.0 °F - 48.0 °F 86% 30.13 in 2.5 mi West 15.0 mph - 0.04 in Rain Light Rain
2:19 PM 51.1 °F - 48.0 °F 89% 30.15 in 1.5 mi NW 18.4 mph 25.3 mph 0.09 in Rain Heavy Rain
2:22 PM 48.0 °F - 44.1 °F 86% 30.15 in 0.8 mi West 16.1 mph 25.3 mph 0.16 in Rain Heavy Rain
2:37 PM 46.9 °F - 43.0 °F 86% 30.14 in 1.0 mi SW 6.9 mph - 0.30 in Rain Heavy Rain
2:53 PM 48.9 °F - 44.1 °F 83% 30.15 in 5.0 mi WSW 6.9 mph - 0.36 in Rain Light Rain
3:08 PM 48.0 °F - 45.0 °F 89% 30.14 in 6.0 mi East 4.6 mph - 0.00 in Thunderstorm Overcast
3:17 PM 48.0 °F - 45.0 °F 89% 30.14 in 8.0 mi Calm Calm - 0.00 in   Overcast
3:31 PM 48.9 °F - 46.0 °F 90% 30.14 in 7.0 mi ENE 3.5 mph - 0.00 in   Overcast
3:53 PM 50.0 °F - 46.9 °F 89% 30.17 in 8.0 mi NE 3.5 mph - 0.00 in   Overcast
4:48 PM 51.8 °F - 48.2 °F 88% 30.17 in 4.0 mi SW 8.1 mph - N/A   Overcast
4:53 PM 52.0 °F - 48.0 °F 86% 30.19 in 3.0 mi SW 6.9 mph - N/A   Overcast
5:05 PM 51.1 °F - 48.0 °F 89% 30.18 in 2.5 mi SW 5.8 mph - N/A   Overcast
5:15 PM 51.1 °F - 46.9 °F 86% 30.18 in 3.0 mi SSW 4.6 mph - N/A   Overcast
5:53 PM 51.1 °F - 48.0 °F 89% 30.21 in 3.0 mi SW 8.1 mph - N/A   Overcast
6:53 PM 51.1 °F - 46.9 °F 86% 30.24 in 5.0 mi WSW 8.1 mph - N/A   Overcast
7:53 PM 50.0 °F - 44.1 °F 80% 30.27 in 7.0 mi WNW 12.7 mph - N/A   Overcast
8:53 PM 50.0 °F - 44.1 °F 80% 30.30 in 6.0 mi NE 5.8 mph - N/A   Haze
9:53 PM 48.0 °F - 45.0 °F 89% 30.32 in 6.0 mi Calm Calm - N/A   Overcast
10:48 PM 46.4 °F - 44.6 °F 93% 30.31 in 6.0 mi Calm Calm - 0.02 in   Overcast
10:53 PM 46.9 °F - 45.0 °F 93% 30.33 in 6.0 mi East 3.5 mph - 0.02 in   Overcast
11:14 PM 46.9 °F - 44.1 °F 90% 30.31 in 7.0 mi Calm Calm - N/A   Overcast
11:29 PM 46.0 °F 44.8 °F 44.1 °F 93% 30.31 in 10.0 mi SE 3.5 mph - N/A   Overcast
11:48 PM 44.6 °F 42.2 °F 42.8 °F 93% 30.31 in 1.8 mi North 4.6 mph - N/A   Overcast
11:53 PM 43.0 °F - 41.0 °F 93% 30.34 in 0.5 mi Calm Calm - N/A Fog Fog